Погода в Малиновском

Россия / Алтайский край     52°57′42″N   80°48′13″E
темп.,
°C
ветер,
м/с
пор.,
м/с
влажн.,
%
обл.,
%
осадки,
мм/ч
давл.,
гПа
погр.,
м
16 мая, вс
вс1601:00+17юз484553 0.0 1019102
04:00+15зюз49505 0.0 1018140
07:00+15зюз51054100 0.0 1017186
10:00+22зюз573911 0.1 1016497
13:00+27з893311 0.1 10151229
16:00+28з79275 0.0 10132741
19:00+28зюз692987 0.0 10111616
22:00+16св2582100 0.1 1013126
17 мая, пн
пн1701:00+16зюз51186100 6.1 1013345
04:00+14сз410934 0.0 1013244
07:00+14ссз489119 0.0 1015341
10:00+16с4577100 0.0 1017677
13:00+20ссз35558 0.0 10171161
16:00+23сз55446 0.0 10161563
19:00+24сз354471 0.0 10161399
22:00+19ююз345888 0.0 101550
18 мая, вт
вт1801:00+18юз386183 0.0 1013124
04:00+16юз5126922 0.3 1012207
07:00+17зюз612660 0.3 1010274
10:00+23зюз684885 0.0 1009441
13:00+29з6122714 0.0 10083043
16:00+29зсз812277 0.0 10063541
19:00+26с693933 0.0 10051514
22:00+19з1156100 0.2 100611
19 мая, ср
ср1901:00+18юз5964100 0.6 1006221
04:00+16з467895 0.1 1004125
07:00+15ссз368856 0.2 1005250
10:00+14с8884100 0.5 1006701
13:00+10ссв71283100 0.7 1010715
16:00+10св61072100 1.0 10131054
19:00+12ссв7104252 1.0 10141775
22:00+8св34505 0.0 101670
20 мая, чт
чт2001:00+6ссз22575 0.0 101812
04:00+5ссз346396 0.0 101881
07:00+6с367337 0.0 1020188
10:00+10с474994 0.0 10201884
13:00+12ссз67315 0.0 10202053
16:00+13ссз67295 0.0 10202100
19:00+12ссз563112 0.0 10211944
22:00+8всв224399 0.0 102211